Location: Beranovka
(49.9415°N, 12.8435°E)
Time: 23:24:11
(UTC+00:00)

Meteor 1-18 Rocket - Pass Details

Date: 10 August 2020
Orbit: 836 x 909 km, 81.2° (Epoch: 23 September)

Event Time Altitude Azimuth Distance (km) Brightness Sun altitude
Rises 20:48:12 0° 346° (NNW) 3,429 8.6 -17.4°
Reaches altitude 10° 20:50:39 10° 344° (NNW) 2,481 7.7 -17.6°
Maximum altitude 20:56:14 72° 262° (W) 886 4.3 -18.1°
Enters shadow 20:59:32 25° 183° (S) 1,629 5.2 -18.4°
